Tracking 18852 objects as of 23-Nov-2017
HD Live streaming from Space Station
objects crossing your sky now

HESSI

Track HESSI now!
10-day predictions
HESSI is classified as:


NORAD ID: 27370
Int'l Code: 2002-004A
Perigee: 475.6 km
Apogee: 493.8 km
Inclination: 38.0 °
Period: 94.2 minutes
Semi major axis: 6855 km
RCS: 2.4114 m2 (large)
Launch date: February 5, 2002
Source: United States (US)
Launch site: Pegasus launched from Eastern Range Air Space (ERAS)

Explore basic physics of particle acceleration and explosive energy release in solar flares.
aabbcc
Your satellite tracking list
Your tracking list is empty




NASA's NSSDC Master Catalog

Two Line Element Set (TLE):
1 27370U 02004A   17327.54947091  .00002385  00000-0  86304-4 0  9997
2 27370  38.0312 156.7922 0013269 264.4762  95.4495 15.29415011870675
Source of the keplerian elements: AFSPC